Location: Archamps
(46.1365°N, 6.1329°E)
Time: 09:25:24
(UTC+00:00)

CZ-6A DEB - Pass Details

Date: 01 March 2024
Orbit: 823 x 884 km, 98.8° (Epoch: 12 April)

Event Time Altitude Azimuth Distance (km) Brightness Sun altitude
Rises 05:07:13 0° 22° (NNE) 3,391 ? -12.3°
Reaches altitude 10° 05:09:51 10° 32° (NNE) 2,445 ? -11.9°
Maximum altitude 05:14:40 33° 96° (E) 1,374 ? -11.1°
Drops below altitude 10° 05:19:26 10° 159° (SSE) 2,416 ? -10.2°
Sets 05:22:00 0° 169° (S) 3,345 ? -9.8°
